Weather History for Aurora, IL

Change the Weather History Date:

Friday, October 25, 2013

  Actual Average Record
Temperature  
Mean Temperature 36 °F 48 °F  
Max Temperature 52 °F 59 °F 75 °F (2004)
Min Temperature 20 °F 36 °F 20 °F (2013)
Degree Days  
Heating Degree Days 29 17  
Month to date heating degree days 329 342  
Since 1 July heating degree days 458 495  
Cooling Degree Days 0 0  
Month to date cooling degree days 14 9  
Year to date cooling degree days 745 656  
Moisture  
Dew Point 24 °F    
Average Humidity 64    
Maximum Humidity 92    
Minimum Humidity 35    
Precipitation  
Precipitation 0.00 in 0.10 in 0.39 in (2009)
Month to date precipitation 1.02 2.55  
Year to date precipitation 28.47 31.19  
Sea Level Pressure  
Sea Level Pressure 30.30 in    
Wind  
Wind Speed 9 mph (SW)    
Max Wind Speed 22 mph    
Max Gust Speed 29 mph    
Visibility 10 miles    
Events      
T = Trace of Precipitation, MM = Missing Value Source: NWS Daily Summary

Daily Weather History Graph

Daily Weather History Graph

Search for Another Location

Airport:

Trip Planner

Search our weather history database for the weather conditions in past years. The results will help you decide how hot, cold, wet, or windy it might be!

Date:

Astronomy

Oct. 25, 2013 Rise Set
Actual Time 7:18 AM CDT 5:57 PM CDT
Civil Twilight 6:49 AM CDT 6:25 PM CDT
Nautical Twilight 6:16 AM CDT 6:58 PM CDT
Astronomical Twilight 5:44 AM CDT 7:30 PM CDT
Moon 11:15 PM CDT (10/25) 12:59 PM CDT (10/25)
Length of Visible Light 11h 36m
Length of Day
10h 39m
Waning Gibbous, 62% of the Moon is Illuminated
Oct 25
Waning Gibbous
Oct 26
Last Quarter
Nov 3
New
Nov 9
First Quarter
Nov 17
Full

Hourly Weather History & Observations

Time (CDT) Temp. Windchill Dew Point Humidity Pressure Visibility Wind Dir Wind Speed Gust Speed Precip Events Conditions
12:52 AM 24.1 °F 18.2 °F 19.9 °F 84% 30.35 in 10.0 mi West 4.6 mph - N/A   Clear
1:52 AM 24.1 °F 18.2 °F 19.9 °F 84% 30.37 in 10.0 mi West 4.6 mph - N/A   Clear
2:52 AM 23.0 °F 17.0 °F 19.9 °F 88% 30.38 in 10.0 mi WNW 4.6 mph - N/A   Clear
3:52 AM 24.1 °F 19.7 °F 21.0 °F 88% 30.38 in 10.0 mi WNW 3.5 mph - N/A   Clear
4:52 AM 23.0 °F - 19.0 °F 85% 30.39 in 10.0 mi Calm Calm - N/A   Clear
5:52 AM 19.9 °F - 17.1 °F 89% 30.42 in 10.0 mi Calm Calm - N/A   Clear
6:52 AM 21.9 °F - 18.0 °F 85% 30.42 in 10.0 mi Calm Calm - N/A   Clear
7:52 AM 21.9 °F - 19.9 °F 92% 30.43 in 10.0 mi Calm Calm - N/A   Clear
8:52 AM 30.0 °F - 26.1 °F 85% 30.44 in 10.0 mi Calm Calm - N/A   Clear
9:52 AM 37.0 °F 33.3 °F 30.0 °F 76% 30.43 in 10.0 mi WSW 4.6 mph - N/A   Mostly Cloudy
10:52 AM - - - N/A% 30.40 in - North - - N/A   Unknown
11:52 AM 46.9 °F - 27.0 °F 46% 30.40 in - West 11.5 mph - N/A   Unknown
12:52 PM 48.9 °F - 28.0 °F 44% 30.36 in 10.0 mi SW 11.5 mph - N/A   Clear
1:52 PM 51.1 °F - 28.0 °F 41% 30.32 in 10.0 mi West 18.4 mph 23.0 mph N/A   Mostly Cloudy
2:52 PM 52.0 °F - 27.0 °F 38% 30.29 in 10.0 mi SW 11.5 mph 25.3 mph N/A   Clear
3:52 PM 51.1 °F - 25.0 °F 36% 30.26 in 10.0 mi SW 15.0 mph 26.5 mph N/A   Clear
4:52 PM 50.0 °F - 25.0 °F 38% 30.23 in 10.0 mi WSW 12.7 mph 20.7 mph N/A   Clear
5:52 PM 48.0 °F - 26.1 °F 42% 30.21 in 10.0 mi SW 10.4 mph - N/A   Clear
6:52 PM 44.1 °F 39.0 °F 26.1 °F 49% 30.18 in 10.0 mi South 9.2 mph - N/A   Clear
7:52 PM 44.1 °F 38.6 °F 26.1 °F 49% 30.16 in 10.0 mi South 10.4 mph - N/A   Clear
8:52 PM 46.0 °F 39.9 °F 27.0 °F 47% 30.14 in 10.0 mi SSW 13.8 mph - N/A   Overcast
9:52 PM 46.0 °F 38.5 °F 27.0 °F 47% 30.12 in 10.0 mi SW 19.6 mph 28.8 mph N/A   Scattered Clouds
10:52 PM 44.1 °F 36.8 °F 26.1 °F 49% 30.09 in 10.0 mi SSW 16.1 mph 25.3 mph N/A   Clear
11:52 PM 42.1 °F 34.9 °F 27.0 °F 55% 30.07 in 10.0 mi SSW 13.8 mph - N/A   Clear